Regional Weather Roundup
Issued by NWS

Home | Current Version | Previous Version | Graphics & Text | Print | Product List | Glossary Off
Versions: 1 2 3 4 5 6 7 8 9 10 11 12 13 14 15 16 17 18 19 20 21 22 23 24 25 26 27 28 29 30 31 32 33 34 35 36 37 38 39 40 41 42 43 44 45 46 47 48 49 50

000
ASUS43 KTOP 110608
RWRKS

WEATHER ROUNDUP FOR KANSAS
NATIONAL WEATHER SERVICE GOODLAND KS
1200 AM CST SUN DEC 11 2016

NOTE:  "FAIR" INDICATES FEW OR NO CLOUDS BELOW 12,000 FEET WITH NO
SIGNIFICANT WEATHER AND/OR OBSTRUCTIONS TO VISIBILITY.

KSZ001>006-013>018-027>032-041>047-110700-
NORTHWEST KANSAS

CITY           SKY/WX    TMP DP  RH WIND       PRES   REMARKS
GOODLAND       CLOUDY    28  23  81 W5        29.66F
6HR MIN TEMP:  27; 6HR MAX TEMP:  33;

HAYS           CLOUDY    28  25  88 E7        29.72F
HILL CITY      CLOUDY    28  24  85 SE5       29.68F
6HR MIN TEMP:  25; 6HR MAX TEMP:  35;

RUSSELL        CLOUDY    29  26  89 E9        29.72F
6HR MIN TEMP:  27; 6HR MAX TEMP:  36;

$$

KSZ061>065-074>080-084>089-110700-
SOUTHWEST KANSAS

CITY           SKY/WX    TMP DP  RH WIND       PRES   REMARKS
DODGE CITY     CLOUDY    37  33  85 S15       29.65F WCI  28
6HR MIN TEMP:  36; 6HR MAX TEMP:  39;

ELKHART          N/A     51  20  29 W9          N/A
GARDEN CITY    CLOUDY    29  27  92 NW8       29.65R
6HR MIN TEMP:  29; 6HR MAX TEMP:  39;

GREAT BEND     CLOUDY    34  30  85 SE9       29.71F
LIBERAL        CLOUDY    45  28  53 SW10      29.66S
PRATT          CLOUDY    33  29  85 S16       29.70F WCI  22
6HR MIN TEMP:  33; 6HR MAX TEMP:  38;

$$

KSZ066>073-081>083-090>101-110700-
SOUTHEAST KANSAS

CITY           SKY/WX    TMP DP  RH WIND       PRES   REMARKS
CHANUTE        CLOUDY    43  31  62 S20G28    29.94F
6HR MIN TEMP:  39; 6HR MAX TEMP:  43;

COFFEYVILLE    CLOUDY    44  33  65 S23G29    29.96F
6HR MIN TEMP:  40; 6HR MAX TEMP:  44;

HUTCHINSON     CLOUDY    38  31  76 S22G30    29.77F WCI  27
6HR MIN TEMP:  37; 6HR MAX TEMP:  41;

MEDICINE LODGE   N/A     37  32  82 SE13G21   29.74F WCI  29
NEWTON         CLOUDY    37  31  78 S21       29.80F WCI  26
PARSONS        CLOUDY    44  32  62 S15G29    29.95F
6HR MIN TEMP:  39; 6HR MAX TEMP:  44;

WICHITA INTL   CLOUDY    38  32  79 S20G29    29.80F WCI  28
6HR MIN TEMP:  36; 6HR MAX TEMP:  38;

WICHITA JABRA  CLOUDY    37  32  82 S16       29.81F WCI  28
6HR MIN TEMP:  36; 6HR MAX TEMP:  38;

WICHITA MCCONL CLOUDY    39  33  78 S23       29.81F WCI  28
WINFIELD       CLOUDY    40  34  79 S21G30    29.86F WCI  30
6HR MIN TEMP:  35; 6HR MAX TEMP:  40;

$$

KSZ007>012-019>026-033>040-048>060-102>105-110700-
NORTHEAST KANSAS

CITY           SKY/WX    TMP DP  RH WIND       PRES   REMARKS
CONCORDIA      CLOUDY    32  25  75 SE14      29.77F WCI  22
6HR MIN TEMP:  31; 6HR MAX TEMP:  35;

EMPORIA        CLOUDY    38  27  64 S16       29.87F WCI  29
6HR MIN TEMP:  35; 6HR MAX TEMP:  38;

LAWRENCE       CLOUDY    37  24  59 SE9       29.93F
6HR MIN TEMP:  34; 6HR MAX TEMP:  38;

MANHATTAN      CLOUDY    35  24  64 S6        29.85F
6HR MIN TEMP:  34; 6HR MAX TEMP:  36;

MARYSVILLE     CLOUDY    32  23  69 SE10      29.83F WCI  24
OLATHE IND     CLOUDY    40  23  50 S18       29.94F WCI  31
6HR MIN TEMP:  36; 6HR MAX TEMP:  40;

OLATHE EXE     CLOUDY    39  23  52 S15       29.94F WCI  31
6HR MIN TEMP:  35; 6HR MAX TEMP:  40;

SALINA         CLOUDY    35  26  69 SE9       29.80F
6HR MIN TEMP:  34; 6HR MAX TEMP:  40;

TOPEKA BILLARD CLOUDY    38  24  57 SE9       29.91F
6HR MIN TEMP:  34; 6HR MAX TEMP:  39;

TOPEKA FORBES  CLOUDY    39  25  57 S15       29.89F WCI  31
6HR MIN TEMP:  37; 6HR MAX TEMP:  39;

$$



USA.gov is the U.S. government's official web portal to all federal, state and local government web resources and services.